ピゴット-リニア-コワルスキー彗星

226P/Pigott-LINEAR-Kowalski (2023)

English version
Home page
Updated on December 1, 2023

---------------------------------------------------------------------

・ プロフィール

・ 写真集

・ 軌道要素

Epoch 2023 Feb. 25.0 TT = JDT 2460000.5
T 2023 Dec. 27.25000 TT                                 Rudenko
q   1.7738684            (2000.0)            P               Q
n   0.13486128     Peri.  341.07388     +0.74447408     -0.35958687
a   3.7659788      Node    54.01351     +0.66625984     +0.34575595
e   0.5289755      Incl.   44.04502     +0.04308326     +0.86668916
P   7.31
>From 1262 observations 1995 Oct. 29-2023 Sept. 27, mean residual 2".7.
     Nongravitational parameters A1 = +0.00, A2 = +0.0000.

・ 星図

・ 光度変化

        m1 = 7.0 + 5 logΔ + 30 log r(t - 15)

---------------------------------------------------------------------

軌道要素はM.P.E.C. 2023-S260に掲載されたものです。
星図はステラナビゲータ Ver.11 (アストロアーツ) で作成したものです。
光度グラフはComet for Windowsで作成したものです。

---------------------------------------------------------------------

Copyright(C) Seiichi Yoshida (comet@aerith.net). All rights reserved.